Hourly Data Report for July 12, 2021

VINELAND STATION RCS
ONTARIO
Current Station Operator: ECCC - MSC

43°11'00.000" N
79°24'00.000" W
79.20 m
6139148
71171
XVN

Download Data

Hourly Data (July 2021)
Hourly Data Report for July 12, 2021
TIME
LST
Temp Definition
°C
Dew Point Definition
°C
Rel Hum Definition
%
Precip. Amount Definition
mm

Wind Dir Definition
10's deg

Wind Spd Definition
km/h
Visibility Definition
km
Stn Press Definition
kPa
Hmdx Definition


Wind Chill Definition


Weather Definition


00:00 19.3 15.6 79 LegendMM 7 13   100.70     LegendNANA
01:00 18.9 16.2 84 LegendMM 7 12   100.72     LegendNANA
02:00 18.7 16.6 88 LegendMM 6 9   100.73     LegendNANA
03:00 18.7 17.0 90 LegendMM 5 13   100.73     LegendNANA
04:00 18.9 17.3 90 LegendMM 7 14   100.75     LegendNANA
05:00 18.8 17.7 93 LegendMM 6 8   100.80     LegendNANA
06:00 19.1 17.7 92 LegendMM 6 12   100.84     LegendNANA
07:00 19.4 17.9 91 LegendMM 6 9   100.88     LegendNANA
08:00 19.5 18.0 91 LegendMM 6 10   100.94     LegendNANA
09:00 19.9 18.0 89 LegendMM 6 12   100.95     LegendNANA
10:00 19.8 18.0 89 LegendMM 4 14   100.97     LegendNANA
11:00 19.8 18.0 89 LegendMM 4 14   101.01     LegendNANA
12:00 20.4 18.5 88 LegendMM 3 10   101.05 27   LegendNANA
13:00 20.7 18.4 87 LegendMM 4 9   101.04 27   LegendNANA
14:00 20.8 18.3 86 LegendMM 4 10   101.02 27   LegendNANA
15:00 20.0 18.3 90 LegendMM 4 9   100.98 26   LegendNANA
16:00 20.6 18.2 86 LegendMM 4 9   100.96 27   LegendNANA
17:00 20.8 18.3 85 LegendMM 6 7   100.93 27   LegendNANA
18:00 20.1 18.1 88 LegendMM 4 5   100.94 26   LegendNANA
19:00 19.7 18.2 91 LegendMM 3 8   100.93     LegendNANA
20:00 19.4 18.3 93 LegendMM 3 6   100.90     LegendNANA
21:00 19.3 18.4 94 LegendMM 29 3   100.94     LegendNANA
22:00 19.4 18.6 95 LegendMM 32 2   100.95     LegendNANA
23:00 19.1 18.3 95 LegendMM 25 2   100.92     LegendNANA

Notes on Data Quality.

Legend

  • E = Estimated
  • M = Missing
  • NA = Not Available*
  • [empty] = Indicates an unobserved value
Date modified: